Skip Page Navigation
NASA JPL Caltech
NASA Logo - Jet Propulsion Laboratory + View the NASA Portal
+ Near-Earth Object (NEO) Program
Search JPL
JPL Home Earth Solar System Stars & Galaxies Technology
JPL Solar System Dynamics
BODIES ORBITS EPHEMERIDES TOOLS PHYSICAL DATA DISCOVERY FAQ SITE MAP
JPL Small-Body Database Browser
Search: [ help ]  
(2004 FU4)
Classification: Apollo [NEO, PHA]          SPK-ID: 3177215
Ephemeris | Orbit Diagram | Orbital Elements | Physical Parameters | Close-Approach Data ]

[ hide orbit diagram ]
Orbit Diagram
Note: Make sure you have Java enabled on your browser to see the applet. This applet is provided as a 3D orbit visualization tool. The applet was implemented using 2-body methods, and hence should not be used for determining accurate long-term trajectories (over several years or decades) or planetary encounter circumstances. For accurate long-term ephemerides, please instead use our Horizons system.
Orbit Viewer

Additional Notes: the orbits shown in the applet are color coded. The planets are white lines, and the asteroid/comet is a blue line. The bright white line indicates the portion of the orbit that is above the ecliptic plane, and the darker portion is below the ecliptic plane. Likewise for the asteroid/comet orbit, the light blue indicates the portion above the ecliptic plane, and the dark blue the portion below the ecliptic plane.

Orbit Viewer applet originally written and kindly provided by Osamu Ajiki (AstroArts), and further modified by Ron Baalke (JPL).


Orbital Elements at Epoch 2456400.5 (2013-Apr-18.0) TDB
Reference: JPL 64 (heliocentric ecliptic J2000)
 Element Value Uncertainty (1-sigma)   Units 
e .2637446912291395 7.2869e-08  
a 1.260016718918501 1.0063e-08 AU
q .9276939984437873 9.0425e-08 AU
i 23.25344627643665 2.3012e-05 deg
node 31.61199705634818 1.1702e-05 deg
peri 46.2659837671852 2.818e-05 deg
M 250.0264580863335 2.4082e-05 deg
tp 2456558.315116507420
(2013-Sep-22.81511651)
3.4264e-05 JED
period 516.6100950651573
1.41
6.1891e-06
1.694e-08
d
yr
n .6968504940938002 8.3484e-09 deg/d
Q 1.592339439393214 1.2718e-08 AU
  Orbit Determination Parameters
   # obs. used (total)      281  
   data-arc span      2615 days (7.16 yr)  
   first obs. used      2004-03-19  
   last obs. used      2011-05-17  
   planetary ephem.      DE405  
   SB-pert. ephem.      SB405-CPV-2  
   condition code      0  
   fit RMS      .54029  
   data source      ORB  
   producer      Otto Matic  
   solution date      2011-Sep-14 19:55:04  

Additional Information
 Earth MOID = .00275217 AU 
 T_jup = 5.002 
[ show covariance matrix ]

Ephemeris | Orbit Diagram | Orbital Elements | Physical Parameters | Close-Approach Data ]

Physical Parameter Table
Parameter Symbol Value Units Sigma Reference Notes
absolute magnitude H 18.263 mag .68965 64 autocmod 2.5a

[ show close-approach data ]
Ephemeris | Orbit Diagram | Orbital Elements | Physical Parameters | Close-Approach Data ]
ABOUT SSD CREDITS/AWARDS PRIVACY/COPYRIGHT GLOSSARY LINKS
FirstGov 2013-Jun-19 10:36 UT
(server date/time)  
NASA Home Page
Site Manager:   Donald K. Yeomans
Webmaster  Alan B. Chamberlin